Location: Lamoine Observatory
(44.4551°N, 68.3470°W)
Time: 02:17:30
(UTC-04:00)

Daily predictions for brighter satellites

Satellite Brightness Start Highest point End
(mag) Time Altitude Azimuth Time Altitude Azimuth Time Altitude Azimuth
Cosmos 2074 Rocket 4.3 00:08:02 62° NW 00:08:02 62° NW 00:13:33 10° N
COSMOS 2455 3.4 00:01:50 10° NNW 00:06:25 54° NW 00:06:25 54° NW
Cosmos 2333 Rocket 3.8 00:07:43 25° WNW 00:09:07 27° NW 00:13:55 10° N
Cosmos 1943 Rocket 4.2 00:05:46 10° N 00:09:42 19° NE 00:10:50 18° ENE
Nadezhda 3 Rocket 4.3 00:09:32 10° N 00:14:58 66° NNE 00:14:58 66° NNE
Cosmos 2237 Rocket 3.7 00:27:23 27° WNW 00:28:03 28° NW 00:32:52 10° N
Cosmos 2369 Rocket 3.2 00:24:05 10° NNW 00:28:53 40° NE 00:28:53 40° NE
GEOS 3 Rocket 4.5 01:04:40 47° N 01:04:40 47° N 01:08:46 10° NNW
Mayak 1.2 01:10:22 10° N 01:11:52 19° NNW 01:11:52 19° NNW
CENTAUR R/B 4.3 01:12:54 10° NW 01:17:31 26° W 01:17:31 26° W
Lacrosse 5 4.3 01:17:22 10° NW 01:21:08 20° N 01:24:53 10° NE
Cosmos 1603 4.4 01:28:13 48° NNW 01:28:13 48° NNW 01:32:44 10° NNE
USA 215 3.7 01:31:04 48° WNW 01:31:04 48° WNW 01:35:41 10° NW
SL-8 Rocket 4.4 01:35:18 56° NW 01:35:18 56° NW 01:40:41 10° N
SL-16 R/B 4.1 01:35:35 20° WNW 01:36:28 21° NW 01:40:39 10° N
ADEOS Rocket 3.7 01:37:38 10° NNE 01:42:17 39° E 01:42:17 39° E
Cosmos 841 Rocket 4.4 01:44:32 44° NE 01:44:32 44° NE 01:48:17 10° NNE
Cosmos 2218 Rocket 4.3 01:45:01 59° NW 01:45:01 59° NW 01:50:48 10° N
Resurs 1-4 Rocket 4.0 01:44:19 10° NE 01:48:03 19° E 01:48:27 19° E
SL-16 R/B 3.8 01:48:13 25° ESE 01:50:59 36° ENE 01:56:34 10° N
Cosmos 1943 Rocket 2.9 01:48:34 10° NNW 01:52:18 44° NW 01:52:18 44° NW
Cosmos 1656 Rocket 4.3 01:52:20 10° NNW 01:57:55 53° ENE 01:58:37 50° E
ARIANE 5 R/B 4.4 01:56:55 10° NE 02:00:50 21° E 02:01:34 20° ESE
CZ-2D R/B 3.6 02:00:52 10° NE 02:05:23 27° E 02:05:56 26° ESE
Cosmos 2369 Rocket 3.9 02:08:21 10° NW 02:10:38 22° WNW 02:10:38 22° WNW
Cosmos 1000 Rocket 4.3 02:10:05 10° N 02:16:23 89° W 02:16:34 85° SSW
Cosmos 2239 Rocket 4.4 02:24:54 77° S 02:25:26 87° E 02:31:46 10° N
Cosmos 1943 4.1 02:26:52 37° WNW 02:26:58 37° NW 02:32:15 10° NNE
Cosmos 372 Rocket 4.1 02:22:27 10° NNW 02:27:34 72° ENE 02:27:34 72° ENE
IRS-1D 4.4 02:24:31 10° NNE 02:29:24 41° E 02:30:00 40° ESE
Cosmos 2221 3.5 02:30:38 45° ENE 02:30:38 45° ENE 02:34:13 10° NNE
BREEZE-M DEB (TANK) 3.7 02:33:29 36° ENE 02:33:29 36° ENE 02:36:45 10° E
Cosmos 540 Rocket 3.5 02:33:40 75° ENE 02:33:40 75° ENE 02:38:30 10° NNE
Cosmos 1763 Rocket 4.3 02:35:40 38° NW 02:35:40 38° NW 02:39:56 10° N
Cosmos 1626 4.4 02:32:03 10° NNW 02:33:20 20° NNW 02:33:20 20° NNW
Cosmos 1535 Rocket 4.4 02:35:43 70° SSW 02:36:30 86° W 02:42:57 10° N
Cosmos 1805 Rocket 4.4 02:33:21 10° N 02:37:38 45° ENE 02:37:55 44° E
CBERS-1 3.9 02:34:19 10° NNE 02:39:18 82° NNW 02:39:18 82° NNW
AQUA 3.8 02:38:04 10° NNE 02:42:30 76° N 02:42:30 76° N
ADEOS 4.4 02:41:17 10° NNE 02:46:17 44° E 02:47:31 38° SE
Cosmos 1726 3.8 02:47:58 29° E 02:47:58 29° E 02:51:06 10° NNE
Cosmos 836 Rocket 4.5 02:51:03 68° WNW 02:51:10 68° WNW 02:56:28 10° NNE
UNK 3.7 02:51:40 75° NNW 02:51:40 75° NNW 02:55:52 10° NNW
Cosmos 2098 Rocket 3.5 02:52:43 71° WSW 02:52:58 72° W 02:57:48 10° N
Cosmos 2285 Rocket 4.1 02:58:36 45° S 03:00:33 69° ESE 03:06:55 10° NNE
Cosmos 1125 Rocket 4.0 02:56:07 10° NNW 03:00:09 44° WNW 03:00:09 44° WNW
Lacrosse 5 3.2 03:00:31 10° NW 03:05:17 40° NNE 03:10:04 10° E
SL-08 R/B 4.4 03:06:43 31° WNW 03:06:43 31° WNW 03:09:49 10° NNW
MOZ.5/SAFIR/RUBIN 5/SL-8 4.2 03:04:04 34° SE 03:05:56 61° ENE 03:10:35 10° N
Sich 1 3.4 03:03:15 10° N 03:07:37 61° E 03:08:38 46° SE
UNKNOWN OBJECT B 3.9 03:03:48 10° NNE 03:07:40 40° E 03:08:26 36° SE
USA 229 DEB 3.7 03:01:08 10° NW 03:08:13 64° WSW 03:15:25 10° SSE
USA 229 3.7 03:01:15 10° NW 03:08:19 65° WSW 03:15:31 10° SSE
NPP 4.0 03:03:38 10° N 03:08:46 46° WNW 03:09:18 44° W
IRS-1C 4.1 03:03:40 10° N 03:08:57 62° WNW 03:09:39 56° WSW
ERS-1 4.3 03:04:30 10° NNE 03:09:29 83° WNW 03:10:10 66° SSW
BREEZE M DEB (TANK) 2.6 03:10:46 71° S 03:10:46 71° S 03:18:24 10° ESE
Cosmos 1400 Rocket 3.6 03:08:50 10° NNW 03:11:35 41° NW 03:11:35 41° NW
NOSS 3-1 (A) 4.4 03:05:48 10° NNW 03:13:15 65° NE 03:21:32 10° SE
Cosmos 2123 Rocket 4.3 03:19:07 10° NNW 03:25:03 47° W 03:26:20 41° WSW
COSMOS 2406 3.3 03:25:15 46° WSW 03:26:49 66° WNW 03:32:31 10° NNE
ADEOS Rocket 3.8 03:23:34 10° N 03:28:13 29° WNW 03:29:13 27° W
Resurs 1-4 Rocket 2.2 03:23:06 10° N 03:28:16 58° WNW 03:29:31 45° WSW
USA 161 4.1 03:30:57 14° ENE 03:30:57 14° ENE 03:31:43 10° NE
Cosmos 1459 Rocket 4.3 03:28:43 18° SSE 03:33:18 61° E 03:39:16 10° NNE
SL-16 R/B 2.9 03:33:19 37° SW 03:34:31 41° W 03:40:21 10° NNW
Cosmos 1515 Rocket 4.5 03:35:59 19° SSE 03:38:50 46° E 03:43:04 10° NNE
Cosmos 1633 Rocket 2.9 03:34:39 10° NNW 03:39:02 75° W 03:40:27 42° S
ARIANE 5 R/B 2.8 03:35:10 10° N 03:40:16 54° WNW 03:41:54 38° WSW
NOSS 3-1 (C) 4.0 03:34:21 10° NW 03:41:56 77° WSW 03:50:18 10° SSE
Cosmos 2228 Rocket 3.5 03:39:27 25° SSE 03:41:57 60° E 03:46:20 10° NNE
Cosmos 1300 2.5 03:43:27 56° SSW 03:44:10 78° W 03:48:01 10° N
CZ-2D R/B 2.7 03:40:33 10° N 03:45:35 42° WNW 03:47:15 33° WSW
Cosmos 2278 4.1 03:40:16 10° NNW 03:45:54 63° ENE 03:51:29 10° SE
Cosmos 1697 Rocket 4.0 03:47:46 10° NNW 03:53:09 42° ENE 03:58:29 10° SE
SL-27 R/B 3.0 03:58:50 36° WNW 03:59:08 37° WNW 04:02:22 10° N
Cosmos 1455 3.8 03:56:53 10° SSE 04:00:15 32° E 04:03:39 10° NNE
Cosmos 1328 Rocket 3.5 04:00:51 29° SSW 04:02:57 70° W 04:07:19 10° N
Cosmos 2061 Rocket 4.0 03:58:52 14° S 04:04:34 88° W 04:11:02 10° N
MOS 1 Rocket 4.2 04:02:23 10° N 04:06:06 28° WNW 04:07:18 24° W
Cosmos 2221 4.3 04:07:31 16° WNW 04:07:54 16° WNW 04:10:40 10° NNW
Cosmos 2082 Rocket 2.8 04:07:33 11° S 04:12:51 54° ESE 04:18:21 10° NE
Cosmos 773 Rocket 4.0 04:10:42 22° SSW 04:14:07 71° WNW 04:19:27 10° NNE
ADEOS II 2.3 04:10:05 10° NNE 04:15:21 71° ESE 04:20:36 10° S
Cosmos 2016 Rocket 3.9 04:09:26 10° S 04:15:34 90° W 04:21:43 10° N
Cosmos 1315 Rocket 4.1 04:15:23 10° NW 04:18:27 21° W 04:18:35 21° W
Cosmos 1933 Rocket 3.6 04:18:14 10° NNW 04:22:37 58° W 04:26:58 10° S
Cosmos 1726 3.7 04:22:36 18° W 04:23:12 19° WNW 04:25:55 10° NNW
PSLV R/B 4.1 04:25:14 26° SW 04:25:54 28° SSW 04:28:45 10° SE
COSMOS 2487 2.5 04:25:53 15° SSW 04:28:45 78° ESE 04:32:18 10° NNE
Meteor 2-3 Rocket 3.7 04:23:36 10° NNW 04:29:15 74° W 04:34:55 10° S
CZ-4B R/B 4.0 04:24:20 10° NNE 04:29:41 52° E 04:34:54 10° S
Cosmos 1725 Rocket 4.1 04:23:31 10° S 04:29:42 83° E 04:35:54 10° N
Cosmos 1151 Rocket 3.1 04:28:07 14° SSW 04:31:41 59° W 04:35:55 10° N
Tiangong 2 2.2 04:30:19 21° SSW 04:31:53 33° SSE 04:34:50 10° E
PSLV R/B 3.9 04:30:40 10° NNE 04:34:50 85° WNW 04:38:58 10° SSW
Cosmos 2100 Rocket 4.5 04:29:51 14° SW 04:35:01 45° WNW 04:41:06 10° N
Cosmos 1802 Rocket 4.2 04:29:14 11° SSW 04:35:05 55° WNW 04:41:17 10° N
Cosmos 2369 3.9 04:35:29 10° NW 04:40:54 48° WSW 04:46:17 10° S
Cosmos 1656 3.7 04:35:31 10° NNW 04:41:09 62° WSW 04:46:45 10° S
Okean O Rocket 1.7 04:36:45 10° NNE 04:41:12 80° ESE 04:45:36 10° S
Cosmos 1892 3.0 04:37:33 10° NNW 04:41:14 45° W 04:44:55 10° SSW
Landsat 4 3.8 04:40:56 10° SSE 04:44:41 81° ENE 04:48:27 10° NNW
Shenzhou-11 Module 2.5 04:43:41 17° SW 04:45:45 46° SSE 04:48:44 10° E
PAYLOAD B 4.4 04:40:20 10° NNE 04:45:59 81° ESE 04:51:34 10° SSW
Lacrosse 5 2.0 04:43:30 10° WNW 04:48:24 49° SW 04:53:16 10° SSE
Cosmos 192 4.4 04:43:57 10° SSW 04:48:53 68° WNW 04:53:51 10° NNE
Cosmos 1825 2.9 04:47:44 10° N 04:51:31 58° E 04:55:15 10° SSE
Tsikada Rocket 4.0 04:47:04 10° NNW 04:53:20 67° W 04:59:39 10° S
Cosmos 1408 2.9 04:50:59 10° N 04:54:37 68° E 04:58:11 10° SSE
ATLAS 2AS CENTAUR R/B 3.6 04:50:01 10° NW 04:58:04 65° NE 05:05:32 10° SE
SL-16 R/B 4.3 04:54:21 10° N 04:59:25 32° NE 05:04:26 10° ESE
CZ-4B R/B 3.4 04:55:50 10° N 05:00:12 53° WNW 05:04:37 10° SSW
Cosmos 1371 Rocket 4.0 04:59:28 10° NNW 05:04:44 86° WSW 05:10:00 10° SSE
Cosmos 1833 Rocket 2.9 05:02:05 10° SW 05:07:40 60° WNW 05:13:16 10° NNE
MTI 3.8 05:10:56 10° SSE 05:14:08 90° SW 05:17:22 10° NNW
OE (NEXTSAT) 4.5 05:11:18 10° W 05:14:53 82° N 05:18:29 10° ENE
